#timestamp,LO_Frequency,Hit,StdDev 
1550196015.9,286046996.9,Y
1550196035.7,286047001.0,P
1550196055.5,286046998.1,N
1550196075.4,286046998.1,N
1550196095.2,286047000.9,N
1550196115.0,286046998.5,N
1550196115.9,286046998.5,N
1550196135.8,286046998.7,N
1550196155.6,286046998.7,N
1550196175.5,286046998.4,N
1550196195.3,286046998.9,N
1550196215.1,286046998.3,N
1550196235.9,286046998.3,N
1550196255.7,286046999.0,N
1550196275.6,286046998.7,N
1550196295.4,286046999.4,N
1550196315.2,286046999.6,N
1550196335.1,286046996.6,Y
1550196336.0,286046996.6,P
1550196355.8,286046999.6,N
1550196375.6,286046998.7,N
1550196395.5,286046999.1,N
1550196415.3,286046999.2,N
1550196435.2,286046997.1,Y
1550196455.9,286046998.7,P
1550196475.7,286046999.9,P
1550196495.6,286047002.2,P
1550196515.4,286047000.8,N
1550196535.3,286046998.7,N
1550196555.1,286046998.2,N
1550196556.0,286046998.2,N
1550196575.8,286047001.0,N
1550196595.7,286047000.0,N
1550196615.5,286046999.7,N
1550196635.3,286047002.8,N
1550196655.2,286047000.3,N
1550196675.0,286046998.9,N
1550196675.9,286046998.9,N
1550196695.8,286046998.2,N
1550196715.8,286047001.1,N
1550196735.7,286046998.3,N
1550196755.5,286046998.5,N
1550196775.3,286046998.5,N
1550196795.2,286046998.7,N
1550196815.0,286046998.8,N
1550196815.9,286046998.8,N
1550196835.8,286046999.5,N
1550196855.6,286046998.6,N
1550196875.4,286046996.5,N
1550196895.3,286046996.9,N
1550196915.1,286046996.1,N
1550196935.9,286046995.2,Y
1550196955.7,286046996.7,P
1550196975.5,286046999.3,N
1550196995.4,286046997.1,N
1550197015.2,286046996.9,N
1550197035.1,286046997.3,N
1550197036.0,286046997.3,N
1550197055.8,286046997.8,N
1550197075.6,286046999.6,N
1550197095.5,286046997.5,N
1550197115.3,286046995.4,Y
1550197135.2,286046999.1,P
1550197155.9,286046999.6,N
1550197175.7,286046999.2,N
1550197195.6,286046998.8,N
1550197215.4,286046999.6,N
1550197235.2,286046999.2,N
1550197255.1,286046998.4,N
1550197256.0,286046998.4,N
1550197275.8,286046999.0,N
1550197295.7,286047000.6,N
1550197315.5,286046999.7,N
1550197335.3,286046999.8,N
1550197355.2,286047002.7,Y
1550197375.0,286047000.1,P
1550197375.9,286047000.1,N
1550197395.7,286047000.8,N
1550197415.6,286047002.1,Y
1550197435.4,286047001.5,P
1550197455.3,286047004.1,P
1550197475.1,286047002.2,N
1550197495.8,286047004.0,N
1550197515.7,286047004.1,N
1550197535.5,286047004.1,N
1550197555.4,286047002.2,N
1550197575.2,286047002.4,N
1550197595.0,286047002.0,N
1550197595.9,286047002.0,N
1550197615.8,286047001.7,N
1550197635.6,286047004.2,Y
1550197655.4,286047002.4,P
1550197675.3,286047002.6,P
1550197695.1,286047002.4,P
1550197715.9,286047002.1,Y
1550197735.7,286046998.5,P
1550197755.5,286047000.6,N
1550197775.4,286047000.7,N
1550197795.2,286046999.0,N
1550197815.1,286046999.2,N
1550197816.0,286046999.2,N
1550197835.8,286046999.0,N
1550197855.6,286046999.0,N
1550197875.5,286046998.6,N
1550197895.3,286046999.3,N
1550197915.1,286046998.8,N
1550197935.9,286046999.6,N
1550197955.7,286046998.7,N
1550197975.6,286046999.6,N
1550197995.4,286046999.2,N
1550198015.2,286046997.3,N
1550198035.1,286046997.2,N
1550198036.0,286046997.2,N
1550198055.8,286046997.4,N
1550198075.7,286046995.6,Y
1550198095.5,286046999.6,P
1550198115.3,286046998.6,P
1550198135.2,286047001.0,N
1550198155.9,286047000.4,N
1550198175.7,286047000.0,N
1550198195.6,286047000.4,N
1550198215.4,286046999.8,N
1550198235.3,286047002.4,Y
1550198255.1,286047002.6,P
1550198256.0,286047002.6,N
1550198275.8,286047001.5,N
1550198295.7,286047002.2,N
1550198315.5,286047002.5,N
1550198335.3,286047000.3,N
1550198355.2,286047000.0,N
1550198375.0,286047000.1,N
1550198375.9,286047000.1,N
1550198395.8,286047002.7,N
1550198415.6,286047000.6,N
1550198435.4,286046999.8,N
1550198455.3,286047000.1,N
1550198475.1,286047000.7,N
1550198495.8,286046998.2,N
1550198515.7,286047000.6,N
1550198535.5,286047000.9,N
1550198555.4,286046998.5,N
1550198575.2,286046998.6,N
1550198595.0,286046998.4,N
1550198595.9,286046998.4,N
1550198615.8,286047000.7,N
1550198635.6,286047000.9,N
1550198655.5,286047000.1,N
1550198675.3,286047002.4,N
1550198695.1,286047000.0,N
1550198715.9,286047000.0,N
1550198735.7,286047002.3,N
1550198755.5,286047001.5,N
1550198775.4,286047004.4,Y
1550198795.2,286047002.8,P
1550198815.1,286047002.0,N
1550198816.0,286047002.0,N
1550198835.8,286047002.4,N
1550198855.6,286047002.4,Y
1550198875.5,286047000.7,P
1550198895.3,286046998.1,P
1550198915.2,286046998.6,N
1550198935.9,286046998.1,N
1550198955.7,286047002.6,N
1550198975.6,286047002.7,N
1550198995.4,286047000.0,N
1550199015.3,286047001.5,N
1550199035.1,286046999.0,N
1550199036.0,286046999.0,N
1550199055.8,286047001.2,N
1550199075.7,286046998.4,N
1550199095.5,286046998.2,N
1550199115.4,286047000.0,N
1550199135.2,286047000.1,N
1550199155.0,286046999.7,N
1550199155.9,286046999.7,N
1550199175.8,286047000.5,N
1550199195.6,286047000.4,N
1550199215.4,286046999.9,N
1550199235.3,286047002.3,N
1550199255.1,286047002.7,N
1550199275.9,286047002.8,N
1550199295.7,286047000.3,N
1550199315.5,286047000.2,N
1550199335.4,286047001.0,N
1550199355.2,286046998.1,N
1550199375.0,286046998.1,N
1550199376.0,286046998.1,N
1550199395.8,286046998.2,N
1550199415.6,286047002.7,N
1550199435.5,286047002.8,N
1550199455.3,286047002.8,N
1550199475.1,286047002.8,N
1550199495.9,286047000.3,N
1550199515.7,286047000.1,N
1550199535.6,286046999.7,N
1550199555.4,286046999.7,N
1550199575.2,286047002.1,N
1550199595.1,286047002.6,N
1550199596.0,286047002.6,N
